TimeEST,TemperatureF,Dew PointF,Humidity,Sea Level PressureIn,VisibilityMPH,Wind Direction,Wind SpeedMPH,Gust SpeedMPH,PrecipitationIn,Events,Conditions,WindDirDegrees,DateUTC
12:54 AM,33.1,19.9,59,30.21,-9999.0,North,-9999.0,-,N/A,,Unknown,0,2012-12-15 05:54:00
1:54 AM,30.0,18.0,61,30.23,-9999.0,North,-9999.0,-,N/A,,Unknown,0,2012-12-15 06:54:00
2:54 AM,28.0,19.9,72,30.25,-9999.0,North,-9999.0,-,N/A,,Unknown,0,2012-12-15 07:54:00
3:54 AM,26.1,19.0,75,30.26,-9999.0,North,-9999.0,-,N/A,,Unknown,0,2012-12-15 08:54:00
4:54 AM,24.1,17.1,75,30.29,-9999.0,North,-9999.0,-,N/A,,Unknown,0,2012-12-15 09:54:00
5:54 AM,21.9,14.0,72,30.32,-9999.0,North,-9999.0,-,N/A,,Unknown,0,2012-12-15 10:54:00
6:54 AM,19.9,12.9,74,30.35,-9999.0,North,-9999.0,-,N/A,,Unknown,0,2012-12-15 11:54:00
7:54 AM,19.0,12.0,74,30.36,-9999.0,North,-9999.0,-,N/A,,Unknown,0,2012-12-15 12:54:00
8:54 AM,19.0,12.0,74,30.38,-9999.0,North,-9999.0,-,N/A,,Unknown,0,2012-12-15 13:54:00
9:54 AM,21.0,10.9,65,30.39,-9999.0,North,-9999.0,-,N/A,,Unknown,0,2012-12-15 14:54:00
10:54 AM,24.1,10.9,57,30.38,-9999.0,North,-9999.0,-,N/A,,Unknown,0,2012-12-15 15:54:00
11:54 AM,25.0,10.0,53,30.36,-9999.0,North,-9999.0,-,N/A,,Unknown,0,2012-12-15 16:54:00
12:54 PM,27.0,7.0,43,30.35,-9999.0,North,-9999.0,-,N/A,,Unknown,0,2012-12-15 17:54:00
1:54 PM,28.0,3.9,36,30.34,-9999.0,North,-9999.0,-,N/A,,Unknown,0,2012-12-15 18:54:00
2:54 PM,28.0,-5.1,24,30.32,-9999.0,North,-9999.0,-,N/A,,Unknown,0,2012-12-15 19:54:00
3:54 PM,26.1,1.0,34,30.32,-9999.0,North,-9999.0,-,N/A,,Unknown,0,2012-12-15 20:54:00
4:54 PM,25.0,1.0,36,30.35,-9999.0,North,-9999.0,-,N/A,,Unknown,0,2012-12-15 21:54:00
5:54 PM,21.9,3.9,46,30.36,-9999.0,North,-9999.0,-,N/A,,Unknown,0,2012-12-15 22:54:00
6:54 PM,19.9,7.0,57,30.37,-9999.0,North,-9999.0,-,N/A,,Unknown,0,2012-12-15 23:54:00
7:54 PM,19.0,8.1,62,30.38,-9999.0,North,-9999.0,-,N/A,,Unknown,0,2012-12-16 00:54:00
8:54 PM,17.1,8.1,68,30.38,-9999.0,North,-9999.0,-,N/A,,Unknown,0,2012-12-16 01:54:00
9:54 PM,16.0,7.0,68,30.36,-9999.0,North,-9999.0,-,N/A,,Unknown,0,2012-12-16 02:54:00
10:54 PM,14.0,9.0,80,30.37,-9999.0,North,-9999.0,-,N/A,,Unknown,0,2012-12-16 03:54:00
11:54 PM,14.0,8.1,77,30.36,-9999.0,North,-9999.0,-,N/A,,Unknown,0,2012-12-16 04:54:00